TimeCDT,TemperatureF,Dew PointF,Humidity,Sea Level PressureIn,VisibilityMPH,Wind Direction,Wind SpeedMPH,Gust SpeedMPH,PrecipitationIn,Events,Conditions,WindDirDegrees,DateUTC
12:53 AM,62.1,55.0,78,30.01,10.0,Calm,Calm,-,N/A,,Clear,0,2012-03-26 05:53:00
1:53 AM,57.9,54.0,87,30.01,10.0,Calm,Calm,-,N/A,,Clear,0,2012-03-26 06:53:00
2:53 AM,57.9,54.0,87,30.01,10.0,North,3.5,-,N/A,,Clear,350,2012-03-26 07:53:00
3:53 AM,57.0,54.0,89,30.00,10.0,North,3.5,-,N/A,,Clear,350,2012-03-26 08:53:00
4:53 AM,60.1,55.0,83,30.01,10.0,North,5.8,-,N/A,,Clear,360,2012-03-26 09:53:00
5:53 AM,60.1,55.0,83,30.02,10.0,North,3.5,-,N/A,,Clear,10,2012-03-26 10:53:00
6:53 AM,59.0,55.0,87,30.04,10.0,NNE,3.5,-,N/A,,Clear,20,2012-03-26 11:53:00
7:53 AM,60.1,55.0,83,30.06,10.0,NNE,4.6,-,N/A,,Clear,20,2012-03-26 12:53:00
8:53 AM,66.0,55.9,70,30.08,10.0,NNE,4.6,-,N/A,,Clear,30,2012-03-26 13:53:00
9:53 AM,69.1,55.9,63,30.09,10.0,East,3.5,-,N/A,,Clear,80,2012-03-26 14:53:00
10:53 AM,73.9,54.0,50,30.09,10.0,Variable,4.6,-,N/A,,Clear,0,2012-03-26 15:53:00
11:53 AM,75.0,55.0,50,30.09,10.0,Variable,4.6,-,N/A,,Clear,0,2012-03-26 16:53:00
12:53 PM,77.0,55.0,47,30.06,10.0,SSE,3.5,-,N/A,,Clear,160,2012-03-26 17:53:00
1:53 PM,79.0,53.1,40,30.04,10.0,North,5.8,-,N/A,,Clear,10,2012-03-26 18:53:00
2:53 PM,80.1,52.0,38,30.02,10.0,Variable,4.6,-,N/A,,Clear,0,2012-03-26 19:53:00
3:53 PM,81.0,54.0,39,30.00,10.0,Variable,4.6,-,N/A,,Clear,0,2012-03-26 20:53:00
4:53 PM,81.0,53.1,38,29.99,10.0,ENE,4.6,-,N/A,,Clear,60,2012-03-26 21:53:00
5:53 PM,81.0,54.0,39,29.99,10.0,Variable,4.6,-,N/A,,Clear,0,2012-03-26 22:53:00
6:53 PM,77.0,57.9,52,30.00,10.0,Calm,Calm,-,N/A,,Clear,0,2012-03-26 23:53:00
7:53 PM,69.1,60.1,73,30.01,10.0,Calm,Calm,-,N/A,,Clear,0,2012-03-27 00:53:00
8:53 PM,66.0,57.9,75,30.02,10.0,Calm,Calm,-,N/A,,Clear,0,2012-03-27 01:53:00
9:53 PM,64.0,57.9,80,30.04,10.0,Calm,Calm,-,N/A,,Clear,0,2012-03-27 02:53:00
10:53 PM,63.0,57.9,84,30.04,10.0,NNE,4.6,-,N/A,,Clear,20,2012-03-27 03:53:00
11:53 PM,60.1,57.0,90,30.04,10.0,Calm,Calm,-,N/A,,Clear,0,2012-03-27 04:53:00